This is the latest recevied weather packets stored in our database for station/object KQ4WWD. If no packets are shown the sender has not sent any weather packets the latest 10 day(s).
| Time | Temp. | Humidity | Pressure | Rain* | Wind** | Luminosity | Snow |
|---|---|---|---|---|---|---|---|
| 1788300987 | 27.78° C | 88% | 1015.3 hPa | 0 mm | - | 55 W/m² | - |
| 1788300683 | 27.78° C | 88% | 1015.5 hPa | 0 mm | - | 63 W/m² | - |
| 1788300382 | 27.78° C | 87% | 1015.3 hPa | 0 mm | - | 64 W/m² | - |
| 1788300081 | 27.78° C | 87% | 1015.3 hPa | 0 mm | - | 69 W/m² | - |
| 1788299779 | 27.78° C | 88% | 1015.1 hPa | 0 mm | - | 71 W/m² | - |
| 1788299474 | 27.78° C | 88% | 1015.2 hPa | 0 mm | - | 66 W/m² | - |
| 1788299173 | 27.78° C | 88% | 1015 hPa | 0 mm | - | 68 W/m² | - |
| 1788298867 | 27.78° C | 88% | 1014.8 hPa | 0 mm | - | 60 W/m² | - |
| 1788298567 | 28.33° C | 88% | 1014.9 hPa | 0 mm | - | 65 W/m² | - |
| 1788298261 | 28.89° C | 86% | 1014.6 hPa | 0 mm | - | 65 W/m² | - |
| 1788297961 | 28.89° C | 86% | 1014.8 hPa | 0 mm | - | 69 W/m² | - |
| 1788297678 | 28.89° C | 85% | 1014.8 hPa | 0 mm | - | 78 W/m² | - |
| 1788297353 | 28.89° C | 84% | 1015 hPa | 0 mm | - | 82 W/m² | - |
| 1788297049 | 28.89° C | 84% | 1015.2 hPa | 0 mm | - | 111 W/m² | - |
| 1788296744 | 28.89° C | 84% | 1015.2 hPa | 0 mm | - | 123 W/m² | - |
| 1788296441 | 29.44° C | 84% | 1014.8 hPa | 0 mm | - | 146 W/m² | - |
| 1788296136 | 28.89° C | 85% | 1014.8 hPa | 0 mm | - | 455 W/m² | - |
| 1788295836 | 28.89° C | 85% | 1015 hPa | 0 mm | - | 211 W/m² | - |
| 1788295533 | 28.89° C | 86% | 1015.2 hPa | 0 mm | - | 349 W/m² | - |
| 1788295233 | 27.78° C | 87% | 1015.1 hPa | 0 mm | - | 471 W/m² | - |
| 1788294933 | 27.78° C | 88% | 1015.1 hPa | 0 mm | - | 359 W/m² | - |
| 1788294631 | 27.22° C | 88% | 1015.1 hPa | 0 mm | - | 262 W/m² | - |
| 1788294322 | 26.67° C | 88% | 1015.1 hPa | 0 mm | - | 269 W/m² | - |
| 1788294019 | 26.67° C | 88% | 1015 hPa | 0 mm | - | 173 W/m² | - |
| 1788293714 | 26.67° C | 89% | 1015.4 hPa | 0 mm | - | 173 W/m² | - |
* Rain latest hour (hover to see other rain measurements)
** Current wind speed in m/s (hover to see current wind gust speed)